Regional Weather Roundup
Issued by NWS Sterling, VA

Home | Current Version | Previous Version | Graphics & Text | Print | Product List | Glossary On
Versions: 1 2 3 4 5 6 7 8 9 10 11 12 13 14 15 16 17 18 19 20 21 22 23 24 25 26 27
000
ASUS41 KLWX 281410
RWRLWX

REGIONAL WEATHER ROUNDUP
NATIONAL WEATHER SERVICE BALTIMORE MD/WASHINGTON DC
1000 AM EDT THU APR 28 2016

Note: "FAIR" indicates few or no clouds below 12,000 feet
with no significant weather and/or obstructions to visibility.
 TC=TEMPERATURE CELSIUS

 * =Non NWS site. Station does not report precipitation (e.g. rain,
    snow, etc.), thunder, or fog.

DCZ001-MDZ009-015-VAZ040>042-051-053>054-281500-
WASHINGTON METRO

CITY           SKY/WX    TMP DP  RH WIND       PRES   REMARKS
WASHINGTON NAT RAIN      54  51  90 NE9       29.99S FOG
DULLES         LGT RAIN  53  50  89 E7        29.98S FOG
ANDREWS AFB    RAIN      52  50  90 E8        29.98R FOG
FT BELVOIR     LGT RAIN  53  51  93 VRB1      29.98F FOG
QUANTICO       LGT RAIN  55  52  89 E5        29.99S
COLLEGE PARK*  CLOUDY    52  50  93 E5        29.99S
LEESBURG*      HVY RAIN  54  54 100 NE3       30.00R
MANASSAS*      LGT RAIN  54  52  94 E3        29.99R FOG
GAITHERSBURG*  CLOUDY    52  48  87 CALM      30.02S

$$

MDZ006>007-011-014-281500-
BALTIMORE METRO

CITY           SKY/WX    TMP DP  RH WIND       PRES   REMARKS
BWI AIRPORT    LGT RAIN  54  45  71 E13       29.99S
MD SCIENCE CTR   N/A     56  43  61 MISG      30.00F
MARTIN STATE   LGT RAIN  55  45  67 NE12      30.02S
ANNAPOLIS      LGT RAIN  53  49  86 E7        29.99S FOG
FORT MEADE*    CLOUDY    52  46  82 E6        30.02S

$$

MDZ012-015-019>023-281500-
MARYLAND EASTERN SHORE

CITY           SKY/WX    TMP DP  RH WIND       PRES   REMARKS
OCEAN CITY     LGT RAIN  51  49  92 E10       29.99F
SALISBURY      LGT RAIN  51  50  96 E8        29.97F FOG
CAMBRIDGE*       N/A     50  48  93 NE5       29.98
EASTON*        LGT RAIN N/A N/A N/A NE6       30.03R

$$

MDZ017>025-281500-
SOUTHERN MARYLAND

CITY           SKY/WX    TMP DP  RH WIND       PRES   REMARKS
PATUXENT RIVER LGT RAIN  53  49  86 E8        29.99R FOG
ST INIGOES     RAIN      53  51  93 E5        29.99R FOG
LEONARDTOWN*   CLOUDY    50  48  93 E5        30.01R

$$

MDZ003>005-281500-
NORTH CENTRAL MARYLAND

CITY           SKY/WX    TMP DP  RH WIND       PRES   REMARKS
FREDERICK*     CLOUDY    52  52 100 NE7       30.02S FOG
HAGERSTOWN APT RAIN      53  48  83 E9        29.98S
WESTMINSTER*   LGT RAIN  54  48  82 CALM      30.00R

$$

MDZ501>502-281500-
WESTERN MARYLAND

CITY           SKY/WX    TMP DP  RH WIND       PRES   REMARKS
OAKLAND*       CLOUDY    46  46 100 SE15      29.92S FOG
CUMBERLAND*    PTSUNNY   54  54 100 N3        30.01R

$$

VAZ025>031-281500-
SHENANDOAH VALLEY

CITY           SKY/WX    TMP DP  RH WIND       PRES   REMARKS
WINCHESTER*    RAIN      52  52 100 E6        29.97S
FRONT ROYAL*   CLOUDY    52  52 100 NE5       29.94F
LURAY*         LGT RAIN  54  54 100 NE3       29.93F
NEW MARKET*    CLOUDY    54  53  97 N7        29.93S
STAUNTON*      CLOUDY    59  59 100 N3        29.94S FOG
WAYNESBORO*    CLOUDY    57  56  96 MISG      29.92S

$$

WVZ021-048>050-054>055-281500-
EASTERN WEST VIRGINIA PANHANDLE

CITY           SKY/WX    TMP DP  RH WIND       PRES   REMARKS
MARTINSBURG    LGT RAIN  51  50  96 NE5       29.98R VSB 3/4
PETERSBURG*    CLOUDY    55  53  92 N5        29.95R

$$

VAZ036>039-050-281500-
CENTRAL FOOTHILLS

CITY           SKY/WX    TMP DP  RH WIND       PRES   REMARKS
CHARLOTTESVILL LGT RAIN  57  54  89 E7        29.95S FOG
CULPEPER*      LGT RAIN  55  54  99 N3        30.00R
ORANGE*        CLOUDY    55  55 100 CALM      29.99R
GORDONSVILLE*  CLOUDY    55  55  99 NE3       29.97R FOG
WARRENTON*     HVY RAIN  54  49  84 CALM      30.00R

$$

VAZ055>057-281500-
NORTH AND CENTRAL PIEDMONT

CITY           SKY/WX    TMP DP  RH WIND       PRES   REMARKS
FREDERICKSBRG* LGT RAIN  55  55 100 E3        29.98R
STAFFORD*      LGT RAIN  53  51  94 E6        30.02R

$$

NCZ024-NYZ072-PAZ021-071-VAZ022-071-281500-
OTHER REGIONAL OBSERVATIONS

CITY           SKY/WX    TMP DP  RH WIND       PRES   REMARKS
NEW YORK CITY  FAIR      53  22  29 CALM      30.08S
PHILADELPHIA   CLOUDY    54  36  50 NE9       30.04S
PITTSBURGH     RAIN      50  44  80 NE6       29.88S
ROANOKE        CLOUDY    61  59  93 E6        29.95R
RICHMOND       LGT RAIN  56  55  97 NE6       29.97S FOG
RALEIGH        PTSUNNY   70  62  76 SW7       29.93R

$$

ANZ530>537-281500-
MARINE OBSERVATIONS

STATION/POSITION TIME  TEMP    WIND        PRES
                       AIR SEA DIR/SP/G
                 (UTC) (F)     (DEG/KT/KT) (MB)
THOMAS PT LIGHT  1400   54 58   60/ 13/ 14 1016.9S
BALT KEY BRIDGE  1300   55      50/  8/  9 1015.7F
COVE POINT       1300   51     110/ 13/ 16 1015.8R
LEWISETTA        1300   54 62   90/ 12/ 14 1014.7R
SOLOMONS ISLAND  1300   53 60   60/  9/ 11   N/A
PINEY POINT      1300           90/  6/  9   N/A

$$





USA.gov is the U.S. government's official web portal to all federal, state and local government web resources and services.